Back to catalog

SL-16 DEB

AliveLEO
NORAD 22292·DEBRIS·🇷🇺 Russia

Launched Dec 25, 1992 from Baikonur Cosmodrome

Loading…

Next Passes (next 24 hours)

TLE

FreshSource: Space-Track

Epoch: Sep 14, 2026, 07:24 UTC

1 22292U 92093G   26257.30895187  .00000009  00000-0  49600-4 0  9995
2 22292  71.0074 358.6260 0210762 348.7781  41.0425 13.71067044681132

Track SL-16 DEB in real time with AllMySat

Download on the App Store